Location: New Greens
(51.7702°N, 0.3379°W)
Time: 02:11:16
(UTC+00:00)

Tiangong - Pass Details

Date: 27 June 2021
Orbit: 373 x 386 km, 41.5° (Epoch: 02 August)

Event Time Altitude Azimuth Distance (km) Brightness Sun altitude
Exits shadow 02:07:33 13° 177° (S) 1,233 3.1 -10.2°
Maximum altitude 02:07:37 13° 176° (S) 1,233 3.1 -10.2°
Drops below altitude 10° 02:09:06 10° 147° (SSE) 1,387 3.6 -10.1°
Sets 02:12:01 0° 118° (ESE) 2,243 5.0 -9.9°
